Location: ????????
(56.1167°N, 38.6333°E)
Time: 20:54:43
(UTC+00:00)

ATLAS 2AS CENTAUR R/B - Pass Details

Date: 18 November 2025
Orbit: 1047 x 1163 km, 63.7° (Epoch: 06 December)

Event Time Altitude Azimuth Distance (km) Brightness Sun altitude
Rises 15:42:18 0° 305° (NW) 3,865 6.4 -20.4°
Reaches altitude 10° 15:44:58 10° 307° (NW) 2,896 5.6 -20.7°
Maximum altitude 15:51:49 79° 34° (NE) 1,076 2.6 -21.7°
Enters shadow 15:54:48 36° 116° (ESE) 1,591 3.1 -22.1°
